Location: Unspecified
(0.0000°N, 0.0000°E)
Time: 05:23:54
(UTC+00:00)

Transit 4A - All Passes

Search period start: 21 May 2026 00:00
Search period end: 31 May 2026 00:00
Orbit: 861 x 980 km, 66.8° (Epoch: 20 May)

Date Brightness Start Highest point End Pass type
(mag) Time Alt. Az. Time Alt. Az. Time Alt. Az.
21 May - 04:07:11 10° SSE 04:11:30 21° ESE 04:15:54 10° ENE visible
21 May - 05:52:25 10° SW 05:57:30 30° WNW 06:02:44 10° N daylight
21 May - 17:03:00 10° NNW 17:09:17 82° WSW 17:15:23 10° SSE daylight
22 May - 04:14:50 10° S 04:20:11 36° ESE 04:25:38 10° NE visible
22 May - 06:02:23 10° WSW 06:06:14 18° WNW 06:10:09 10° NNW daylight
22 May - 15:28:47 10° NE 15:31:49 14° ENE 15:34:50 10° E daylight
22 May - 17:11:57 10° NW 17:17:57 49° WSW 17:23:48 10° S daylight
23 May - 04:23:01 10° S 04:28:50 62° ESE 04:34:49 10° NNE visible
23 May - 15:35:40 10° NNE 15:40:34 24° ENE 15:45:22 10° ESE daylight
23 May - 17:21:21 10° NW 17:26:37 29° WSW 17:31:47 10° SSW daylight
24 May - 04:31:37 10° SSW 04:37:31 78° WNW 04:43:34 10° NNE visible
24 May - 15:43:29 10° N 15:49:17 40° ENE 15:54:57 10° SE daylight
24 May - 17:31:28 10° WNW 17:35:18 17° WSW 17:39:05 10° SSW daylight
25 May - 02:57:20 10° SE 03:00:12 14° ESE 03:03:05 10° E visible
25 May - 04:40:35 10° SW 04:46:11 45° WNW 04:51:58 10° N visible
25 May - 15:51:46 10° NNW 15:57:59 68° ENE 16:04:02 10° SSE daylight
26 May - 03:04:13 10° SSE 03:08:53 24° ESE 03:13:38 10° ENE visible
26 May - 04:50:01 10° SW 04:54:53 27° WNW 04:59:55 10° NNW visible
26 May - 16:00:26 10° NNW 16:06:40 73° WSW 16:12:43 10° SSE daylight
27 May - 03:12:02 10° S 03:17:33 41° ESE 03:23:12 10° NE visible
27 May - 05:00:14 10° WSW 05:03:38 16° WNW 05:07:06 10° NW visible
27 May - 14:25:37 10° NNE 14:29:14 16° ENE 14:32:48 10° ESE daylight
27 May - 16:09:29 10° NW 16:15:20 43° WSW 16:21:02 10° S daylight
28 May - 03:20:20 10° SSW 03:26:13 71° ESE 03:32:16 10° NNE visible
28 May - 14:32:49 10° NNE 14:37:58 27° ENE 14:43:01 10° SE daylight
28 May - 16:19:01 10° NW 16:24:00 25° WSW 16:28:54 10° SSW daylight
29 May - 03:29:01 10° SSW 03:34:53 69° WNW 03:40:56 10° NNE visible
29 May - 14:40:45 10° N 14:46:41 45° ENE 14:52:27 10° SE daylight
29 May - 16:29:25 10° WNW 16:32:41 15° WSW 16:35:56 10° SW daylight
30 May - 01:54:06 10° SE 01:57:35 16° ESE 02:01:06 10° ENE visible
30 May - 03:38:05 10° SW 03:43:35 40° WNW 03:49:14 10° N visible
30 May - 14:49:09 10° NNW 14:55:22 77° ENE 15:01:26 10° SSE daylight
